This is the latest recevied weather packets stored in our database for station/object LZ2SLL-13. If no packets are shown the sender has not sent any weather packets the latest 1 day(s).
| Time | Temp. | Humidity | Pressure | Rain* | Wind** | Luminosity | Snow |
|---|---|---|---|---|---|---|---|
| 1777961781 | 19.44° C | 31% | - | 0 mm | 0.45 m/s, 168° | 504 W/m² | - |
| 1777961480 | 18.89° C | 29% | - | 0 mm | 0.89 m/s, 0° | 488 W/m² | - |
| 1777961179 | 19.44° C | 31% | - | 0 mm | 0.45 m/s, 156° | 411 W/m² | - |
| 1777960878 | 18.89° C | 33% | - | 0 mm | 0.89 m/s, 175° | 449 W/m² | - |
| 1777960578 | 18.33° C | 34% | - | 0 mm | 0.45 m/s, 82° | 433 W/m² | - |
| 1777960277 | 17.78° C | 36% | - | 0 mm | 0.45 m/s, 63° | 414 W/m² | - |
| 1777959976 | 17.78° C | 37% | - | 0 mm | 0.45 m/s, 354° | 397 W/m² | - |
| 1777959676 | 17.22° C | 37% | - | 0 mm | 1.34 m/s, 4° | 378 W/m² | - |
| 1777959375 | 17.22° C | 39% | - | 0 mm | 0.89 m/s, 231° | 359 W/m² | - |
| 1777959074 | 16.67° C | 36% | - | 0 mm | 0.89 m/s, 0° | 340 W/m² | - |
| 1777958773 | 16.67° C | 36% | - | 0 mm | 0.45 m/s, 177° | 71 W/m² | - |
| 1777958473 | 16.11° C | 38% | - | 0 mm | 0.89 m/s, 349° | 305 W/m² | - |
| 1777958172 | 15.56° C | 39% | - | 0 mm | 0.89 m/s, 307° | 286 W/m² | - |
| 1777957871 | 15.56° C | 42% | - | 0 mm | 0.89 m/s, 333° | 268 W/m² | - |
| 1777957570 | 15° C | 42% | - | 0 mm | 1.79 m/s, 328° | 249 W/m² | - |
| 1777957270 | 14.44° C | 45% | - | 0 mm | 0.89 m/s, 15° | 217 W/m² | - |
| 1777956969 | 13.89° C | 45% | - | 0 mm | 1.34 m/s, 333° | 99 W/m² | - |
| 1777956668 | 13.89° C | 45% | - | 0 mm | 1.34 m/s, 0° | 65 W/m² | - |
| 1777956368 | 13.33° C | 46% | - | 0 mm | 2.24 m/s, 351° | 64 W/m² | - |
| 1777956067 | 13.33° C | 44% | - | 0 mm | 1.79 m/s, 347° | 60 W/m² | - |
| 1777955766 | 13.33° C | 45% | - | 0 mm | 1.79 m/s, 327° | 58 W/m² | - |
| 1777955466 | 13.33° C | 44% | - | 0 mm | 2.24 m/s, 330° | 56 W/m² | - |
| 1777955165 | 13.33° C | 45% | - | 0 mm | 2.24 m/s, 323° | 54 W/m² | - |
| 1777954864 | 13.33° C | 45% | - | 0 mm | 2.24 m/s, 344° | 53 W/m² | - |
| 1777954563 | 13.33° C | 45% | - | 0 mm | 1.34 m/s, 336° | 50 W/m² | - |
* Rain latest hour (hover to see other rain measurements)
** Current wind speed in m/s (hover to see current wind gust speed)